Tracking 29892 objects as of 21-Nov-2024
HD Live streaming from Space Station
objects crossing your sky now

STARLINK-32431

Track STARLINK-32431 now!
10-day predictions
STARLINK-32431 is classified as:


NORAD ID: 61256
Int'l Code: 2024-175P
Perigee: 453.7 km
Apogee: 455.2 km
Inclination: 53.2 °
Period: 93.5 minutes
Semi major axis: 6825 km
RCS: Unknown
Launch date: September 25, 2024
Source: United States (US)
Launch site: AIR FORCE WESTERN TEST RANGE (AFWTR)
Your satellite tracking list
Your tracking list is empty




NASA's NSSDC Master Catalog

Two Line Element Set (TLE):
1 61256U 24175P   24325.15841474 -.00007794  00000-0 -18529-3 0  9996
2 61256  53.1619 242.9604 0001072  91.8615 268.2512 15.39586317  8736
Source of the keplerian elements: AFSPC